Погода в Черновцах

Украина / Черновицкая область     48°17′31″N   25°56′06″E
темп.,
°C
ветер,
м/с
пор.,
м/с
влажн.,
%
обл.,
%
осадки,
мм/ч
давл.,
гПа
погр.,
м
13 апреля, вт
вт1300:00+10ююв22594 0.0 101918
03:00+8ююв12635 0.0 101810
06:00+7юв22663 0.0 101811
09:00+11юв23535 0.0 1018218
12:00+16в22425 0.0 1017877
15:00+18ссз223997 0.0 10151779
18:00+13сз8871100 0.0 1015570
21:00+7сз7117999 0.0 1017419
14 апреля, ср
ср1400:00+6зсз5782100 0.0 1016382
03:00+6зсз4582100 0.0 1015356
06:00+5зсз3585100 0.0 1014292
09:00+5зсз4585100 0.0 1014386
12:00+4зсз5586100 0.0 1014442
15:00+3сз7887100 0.0 1015440
18:00+2сз71090100 0.2 1014487
21:00+1сз61296100 0.8 1016473
15 апреля, чт
чт1500:000зсз71398100 4.2 1015464
03:000сз71398100 7.1 1015565
06:000сз71399100 2.4 1015625
09:000зсз61399100 5.1 1016663
12:00+1сз714100100 1.9 1016666
15:00+2сз71499100 2.5 1017625
18:00+2сз71498100 0.3 1017661
21:00+1сз71498100 0.6 1017722
16 апреля, пт
пт1600:00+1зсз71497100 0.7 1017697
03:00+1зсз81598100 2.3 1016624
06:00+1зсз61499100 2.4 1015690
09:00+1зсз514100100 10.3 1015727
12:00+1зсз514100100 4.6 1015760
15:00+2зсз715100100 6.2 1016725
18:00+2зсз615100100 2.3 1017817
21:00+3сз614100100 3.1 1018797
17 апреля, сб
сб1700:00+3сз51399100 1.3 1019758
03:00+3сз3999100 2.1 1019502
06:00+3з2899100 0.0 1019387
09:00+3зсз2799100 0.0 1020549
12:00+4зсз1599100 0.0 1020436
15:00+4с2398100 0.0 1020282
18:00+5ссв1192100 0.0 1019312
21:00+4св2296100 0.0 1020117